Year,Month,Day,Hour,Minute,Value (Times are PST for temperature in C)
2022,06,09,00,00,12.10
2022,06,09,00,01,12.10
2022,06,09,00,02,12.10
2022,06,09,00,03,12.10
2022,06,09,00,04,12.10
2022,06,09,00,05,12.10
2022,06,09,00,06,12.10
2022,06,09,00,07,12.10
2022,06,09,00,08,12.10
2022,06,09,00,09,12.10
2022,06,09,00,10,12.10
2022,06,09,00,11,12.10
2022,06,09,00,12,12.00
2022,06,09,00,13,12.00
2022,06,09,00,14,12.00
2022,06,09,00,15,11.90
2022,06,09,00,16,11.90
2022,06,09,00,17,11.90
2022,06,09,00,18,11.90
2022,06,09,00,19,11.90
2022,06,09,00,20,11.90
2022,06,09,00,21,11.90
2022,06,09,00,22,11.90
2022,06,09,00,23,11.90
2022,06,09,00,24,11.90
2022,06,09,00,25,11.90
2022,06,09,00,26,11.90
2022,06,09,00,27,11.90
2022,06,09,00,28,11.90
2022,06,09,00,29,11.90
2022,06,09,00,30,11.90
2022,06,09,00,31,11.80
2022,06,09,00,32,11.80
2022,06,09,00,33,11.80
2022,06,09,00,34,11.80
2022,06,09,00,35,11.80
2022,06,09,00,36,11.80
2022,06,09,00,37,11.80
2022,06,09,00,38,11.80
2022,06,09,00,39,11.80
2022,06,09,00,40,11.70
2022,06,09,00,41,11.80
2022,06,09,00,42,11.70
2022,06,09,00,43,11.70
2022,06,09,00,44,11.70
2022,06,09,00,45,11.70
2022,06,09,00,46,11.70
2022,06,09,00,47,11.70
2022,06,09,00,48,11.70
2022,06,09,00,49,11.70
2022,06,09,00,50,11.70
2022,06,09,00,51,11.80
2022,06,09,00,52,11.80
2022,06,09,00,53,11.80
2022,06,09,00,54,11.70
2022,06,09,00,55,11.70
2022,06,09,00,56,11.70
2022,06,09,00,57,11.70
2022,06,09,00,58,11.70
2022,06,09,00,59,11.70
2022,06,09,01,00,11.70
2022,06,09,01,01,11.70
2022,06,09,01,02,11.70
2022,06,09,01,03,11.60
2022,06,09,01,04,11.60
2022,06,09,01,05,11.60
2022,06,09,01,06,11.60
2022,06,09,01,07,11.60
2022,06,09,01,08,11.60
2022,06,09,01,09,11.60
2022,06,09,01,10,11.60
2022,06,09,01,11,11.60
2022,06,09,01,12,11.60
2022,06,09,01,13,11.60
2022,06,09,01,14,11.60
2022,06,09,01,15,11.60
2022,06,09,01,16,11.60
2022,06,09,01,17,11.60
2022,06,09,01,18,11.60
2022,06,09,01,19,11.60
2022,06,09,01,20,11.60
2022,06,09,01,21,11.60
2022,06,09,01,22,11.60
2022,06,09,01,23,11.60
2022,06,09,01,24,11.60
2022,06,09,01,25,11.60
2022,06,09,01,26,11.60
2022,06,09,01,27,11.60
2022,06,09,01,28,11.60
2022,06,09,01,29,11.60
2022,06,09,01,30,11.60
2022,06,09,01,31,11.60
2022,06,09,01,32,11.60
2022,06,09,01,33,11.60
2022,06,09,01,34,11.60
2022,06,09,01,35,11.60
2022,06,09,01,36,11.60
2022,06,09,01,37,11.60
2022,06,09,01,38,11.60
2022,06,09,01,39,11.60
2022,06,09,01,40,11.60
2022,06,09,01,41,11.60
2022,06,09,01,42,11.60
2022,06,09,01,43,11.50
2022,06,09,01,44,11.50
2022,06,09,01,45,11.40
2022,06,09,01,46,11.40
2022,06,09,01,47,11.40
2022,06,09,01,48,11.40
2022,06,09,01,49,11.40
2022,06,09,01,50,11.40
2022,06,09,01,51,11.40
2022,06,09,01,52,11.40
2022,06,09,01,53,11.40
2022,06,09,01,54,11.40
2022,06,09,01,55,11.40
2022,06,09,01,56,11.40
2022,06,09,01,57,11.40
2022,06,09,01,58,11.40
2022,06,09,01,59,11.40
2022,06,09,02,00,11.40
2022,06,09,02,01,11.40
2022,06,09,02,02,11.40
2022,06,09,02,03,11.40
2022,06,09,02,04,11.40
2022,06,09,02,05,11.40
2022,06,09,02,06,11.40
2022,06,09,02,07,11.40
2022,06,09,02,08,11.40
2022,06,09,02,09,11.40
2022,06,09,02,10,11.40
2022,06,09,02,11,11.40
2022,06,09,02,12,11.40
2022,06,09,02,13,11.30
2022,06,09,02,14,11.30
2022,06,09,02,15,11.30
2022,06,09,02,16,11.30
2022,06,09,02,17,11.30
2022,06,09,02,18,11.30
2022,06,09,02,19,11.30
2022,06,09,02,20,11.30
2022,06,09,02,21,11.30
2022,06,09,02,22,11.30
2022,06,09,02,23,11.30
2022,06,09,02,24,11.30
2022,06,09,02,25,11.40
2022,06,09,02,26,11.40
2022,06,09,02,27,11.40
2022,06,09,02,28,11.40
2022,06,09,02,29,11.50
2022,06,09,02,30,11.50
2022,06,09,02,31,11.50
2022,06,09,02,32,11.50
2022,06,09,02,33,11.50
2022,06,09,02,34,11.50
2022,06,09,02,35,11.50
2022,06,09,02,36,11.50
2022,06,09,02,37,11.40
2022,06,09,02,38,11.40
2022,06,09,02,39,11.40
2022,06,09,02,40,11.40
2022,06,09,02,41,11.40
2022,06,09,02,42,11.40
2022,06,09,02,43,11.40
2022,06,09,02,44,11.40
2022,06,09,02,45,11.40
2022,06,09,02,46,11.40
2022,06,09,02,47,11.40
2022,06,09,02,48,11.40
2022,06,09,02,49,11.40
2022,06,09,02,50,11.40
2022,06,09,02,51,11.40
2022,06,09,02,52,11.30
2022,06,09,02,53,11.30
2022,06,09,02,54,11.30
2022,06,09,02,55,11.30
2022,06,09,02,56,11.30
2022,06,09,02,57,11.30
2022,06,09,02,58,11.30
2022,06,09,02,59,11.20
2022,06,09,03,00,11.20
2022,06,09,03,01,11.20
2022,06,09,03,02,11.20
2022,06,09,03,03,11.20
2022,06,09,03,04,11.20
2022,06,09,03,05,11.20
2022,06,09,03,06,11.20
2022,06,09,03,07,11.20
2022,06,09,03,08,11.20
2022,06,09,03,09,11.10
2022,06,09,03,10,11.10
2022,06,09,03,11,11.10
2022,06,09,03,12,11.20
2022,06,09,03,13,11.20
2022,06,09,03,14,11.20
2022,06,09,03,15,11.20
2022,06,09,03,16,11.10
2022,06,09,03,17,11.10
2022,06,09,03,18,11.10
2022,06,09,03,19,11.10
2022,06,09,03,20,11.10
2022,06,09,03,21,11.10
2022,06,09,03,22,11.10
2022,06,09,03,23,11.10
2022,06,09,03,24,11.10
2022,06,09,03,25,11.10
2022,06,09,03,26,11.10
2022,06,09,03,27,11.10
2022,06,09,03,28,11.10
2022,06,09,03,29,11.10
2022,06,09,03,30,11.20
2022,06,09,03,31,11.20
2022,06,09,03,32,11.20
2022,06,09,03,33,11.20
2022,06,09,03,34,11.20
2022,06,09,03,35,11.10
2022,06,09,03,36,11.10
2022,06,09,03,37,11.10
2022,06,09,03,38,11.10
2022,06,09,03,39,11.10
2022,06,09,03,40,11.10
2022,06,09,03,41,11.10
2022,06,09,03,42,11.10
2022,06,09,03,43,11.10
2022,06,09,03,44,11.10
2022,06,09,03,45,11.10
2022,06,09,03,46,11.10
2022,06,09,03,47,11.10
2022,06,09,03,48,11.10
2022,06,09,03,49,11.10
2022,06,09,03,50,11.10
2022,06,09,03,51,11.10
2022,06,09,03,52,11.10
2022,06,09,03,53,11.10
2022,06,09,03,54,11.10
2022,06,09,03,55,11.10
2022,06,09,03,56,11.10
2022,06,09,03,57,11.10
2022,06,09,03,58,11.10
2022,06,09,03,59,11.20
2022,06,09,04,00,11.20
2022,06,09,04,01,11.20
2022,06,09,04,02,11.20
2022,06,09,04,03,11.30
2022,06,09,04,04,11.30
2022,06,09,04,05,11.30
2022,06,09,04,06,11.30
2022,06,09,04,07,11.30
2022,06,09,04,08,11.30
2022,06,09,04,09,11.30
2022,06,09,04,10,11.30
2022,06,09,04,11,11.40
2022,06,09,04,12,11.40
2022,06,09,04,13,11.40
2022,06,09,04,14,11.40
2022,06,09,04,15,11.40
2022,06,09,04,16,11.40
2022,06,09,04,17,11.40
2022,06,09,04,18,11.40
2022,06,09,04,19,11.40
2022,06,09,04,20,11.40
2022,06,09,04,21,11.30
2022,06,09,04,22,11.30
2022,06,09,04,23,11.30
2022,06,09,04,24,11.20
2022,06,09,04,25,11.20
2022,06,09,04,26,11.20
2022,06,09,04,27,11.20
2022,06,09,04,28,11.20
2022,06,09,04,29,11.20
2022,06,09,04,30,11.20
2022,06,09,04,31,11.20
2022,06,09,04,32,11.20
2022,06,09,04,33,11.20
2022,06,09,04,34,11.20
2022,06,09,04,35,11.20
2022,06,09,04,36,11.20
2022,06,09,04,37,11.20
2022,06,09,04,38,11.20
2022,06,09,04,39,11.20
2022,06,09,04,40,11.20
2022,06,09,04,41,11.20
2022,06,09,04,42,11.20
2022,06,09,04,43,11.20
2022,06,09,04,44,11.20
2022,06,09,04,45,11.20
2022,06,09,04,46,11.20
2022,06,09,04,47,11.20
2022,06,09,04,48,11.20
2022,06,09,04,49,11.20
2022,06,09,04,50,11.20
2022,06,09,04,51,11.20
2022,06,09,04,52,11.20
2022,06,09,04,53,11.20
2022,06,09,04,54,11.20
2022,06,09,04,55,11.20
2022,06,09,04,56,11.20
2022,06,09,04,57,11.20
2022,06,09,04,58,11.20
2022,06,09,04,59,11.20
2022,06,09,05,00,11.20
2022,06,09,05,01,11.20
2022,06,09,05,02,11.20
2022,06,09,05,03,11.20
2022,06,09,05,04,11.20
2022,06,09,05,05,11.20
2022,06,09,05,06,11.20
2022,06,09,05,07,11.20
2022,06,09,05,08,11.20
2022,06,09,05,09,11.20
2022,06,09,05,10,11.20
2022,06,09,05,11,11.10
2022,06,09,05,12,11.10
2022,06,09,05,13,11.10
2022,06,09,05,14,11.10
2022,06,09,05,15,11.10
2022,06,09,05,16,11.10
2022,06,09,05,17,11.10
2022,06,09,05,18,11.10
2022,06,09,05,19,11.10
2022,06,09,05,20,11.10
2022,06,09,05,21,11.10
2022,06,09,05,22,11.10
2022,06,09,05,23,11.10
2022,06,09,05,24,11.10
2022,06,09,05,25,11.10
2022,06,09,05,26,11.10
2022,06,09,05,27,11.10
2022,06,09,05,28,11.10
2022,06,09,05,29,11.10
2022,06,09,05,30,11.10
2022,06,09,05,31,11.10
2022,06,09,05,32,11.10
2022,06,09,05,33,11.10
2022,06,09,05,34,11.10
2022,06,09,05,35,11.10
2022,06,09,05,36,11.10
2022,06,09,05,37,11.10
2022,06,09,05,38,11.10
2022,06,09,05,39,11.10
2022,06,09,05,40,11.10
2022,06,09,05,41,11.10
2022,06,09,05,42,11.10
2022,06,09,05,43,11.10
2022,06,09,05,44,11.10
2022,06,09,05,45,11.10
2022,06,09,05,46,11.10
2022,06,09,05,47,11.10
2022,06,09,05,48,11.10
2022,06,09,05,49,11.10
2022,06,09,05,50,11.10
2022,06,09,05,51,11.10
2022,06,09,05,52,11.10
2022,06,09,05,53,11.20
2022,06,09,05,54,11.20
2022,06,09,05,55,11.20
2022,06,09,05,56,11.20
2022,06,09,05,57,11.20
2022,06,09,05,58,11.20
2022,06,09,05,59,11.20
2022,06,09,06,00,11.20
2022,06,09,06,01,11.20
2022,06,09,06,02,11.30
2022,06,09,06,03,11.30
2022,06,09,06,04,11.30
2022,06,09,06,05,11.30
2022,06,09,06,06,11.30
2022,06,09,06,07,11.30
2022,06,09,06,08,11.30
2022,06,09,06,09,11.30
2022,06,09,06,10,11.40
2022,06,09,06,11,11.40
2022,06,09,06,12,11.40
2022,06,09,06,13,11.40
2022,06,09,06,14,11.40
2022,06,09,06,15,11.40
2022,06,09,06,16,11.40
2022,06,09,06,17,11.50
2022,06,09,06,18,11.50
2022,06,09,06,19,11.50
2022,06,09,06,20,11.50
2022,06,09,06,21,11.60
2022,06,09,06,22,11.60
2022,06,09,06,23,11.60
2022,06,09,06,24,11.70
2022,06,09,06,25,11.70
2022,06,09,06,26,11.70
2022,06,09,06,27,11.70
2022,06,09,06,28,11.70
2022,06,09,06,29,11.80
2022,06,09,06,30,11.80
2022,06,09,06,31,11.90
2022,06,09,06,32,11.90
2022,06,09,06,33,11.90
2022,06,09,06,34,12.00
2022,06,09,06,35,12.00
2022,06,09,06,36,12.10
2022,06,09,06,37,12.10
2022,06,09,06,38,12.20
2022,06,09,06,39,12.20
2022,06,09,06,40,12.20
2022,06,09,06,41,12.20
2022,06,09,06,42,12.20
2022,06,09,06,43,12.20
2022,06,09,06,44,12.20
2022,06,09,06,45,12.30
2022,06,09,06,46,12.30
2022,06,09,06,47,12.30
2022,06,09,06,48,12.30
2022,06,09,06,49,12.30
2022,06,09,06,50,12.30
2022,06,09,06,51,12.30
2022,06,09,06,52,12.40
2022,06,09,06,53,12.40
2022,06,09,06,54,12.40
2022,06,09,06,55,12.50
2022,06,09,06,56,12.50
2022,06,09,06,57,12.60
2022,06,09,06,58,12.60
2022,06,09,06,59,12.60
2022,06,09,07,00,12.60
2022,06,09,07,01,12.60
2022,06,09,07,02,12.70
2022,06,09,07,03,12.70
2022,06,09,07,04,12.70
2022,06,09,07,05,12.70
2022,06,09,07,06,12.70
2022,06,09,07,07,12.70
2022,06,09,07,08,12.70
2022,06,09,07,09,12.70
2022,06,09,07,10,12.80
2022,06,09,07,11,12.80
2022,06,09,07,12,12.80
2022,06,09,07,13,12.80
2022,06,09,07,14,12.80
2022,06,09,07,15,12.90
2022,06,09,07,16,12.90
2022,06,09,07,17,12.90
2022,06,09,07,18,13.00
2022,06,09,07,19,13.00
2022,06,09,07,20,13.00
2022,06,09,07,21,13.00
2022,06,09,07,22,13.00
2022,06,09,07,23,13.10
2022,06,09,07,24,13.10
2022,06,09,07,25,13.10
2022,06,09,07,26,13.00
2022,06,09,07,27,13.00
2022,06,09,07,28,13.00
2022,06,09,07,29,13.10
2022,06,09,07,30,13.10
2022,06,09,07,31,13.10
2022,06,09,07,32,13.10
2022,06,09,07,33,13.00
2022,06,09,07,34,13.10
2022,06,09,07,35,13.10
2022,06,09,07,36,13.10
2022,06,09,07,37,13.10
2022,06,09,07,38,13.10
2022,06,09,07,39,13.10
2022,06,09,07,40,13.10
2022,06,09,07,41,13.20
2022,06,09,07,42,13.10
2022,06,09,07,43,13.10
2022,06,09,07,44,13.20
2022,06,09,07,45,13.20
2022,06,09,07,46,13.20
2022,06,09,07,47,13.20
2022,06,09,07,48,13.20
2022,06,09,07,49,13.20
2022,06,09,07,50,13.20
2022,06,09,07,51,13.20
2022,06,09,07,52,13.20
2022,06,09,07,53,13.20
2022,06,09,07,54,13.20
2022,06,09,07,55,13.20
2022,06,09,07,56,13.20
2022,06,09,07,57,13.20
2022,06,09,07,58,13.20
2022,06,09,07,59,13.20
2022,06,09,08,00,13.20
2022,06,09,08,01,13.10
2022,06,09,08,02,13.20
2022,06,09,08,03,13.20
2022,06,09,08,04,13.20
2022,06,09,08,05,13.30
2022,06,09,08,06,13.40
2022,06,09,08,07,13.40
2022,06,09,08,08,13.50
2022,06,09,08,09,13.50
2022,06,09,08,10,13.60
2022,06,09,08,11,13.60
2022,06,09,08,12,13.70
2022,06,09,08,13,13.70
2022,06,09,08,14,13.70
2022,06,09,08,15,13.80
2022,06,09,08,16,13.80
2022,06,09,08,17,13.80
2022,06,09,08,18,13.80
2022,06,09,08,19,13.80
2022,06,09,08,20,13.80
2022,06,09,08,21,13.80
2022,06,09,08,22,13.80
2022,06,09,08,23,13.80
2022,06,09,08,24,13.80
2022,06,09,08,25,13.80
2022,06,09,08,26,13.80
2022,06,09,08,27,13.80
2022,06,09,08,28,13.80
2022,06,09,08,29,13.80
2022,06,09,08,30,13.80
2022,06,09,08,31,13.80
2022,06,09,08,32,13.80
2022,06,09,08,33,13.80
2022,06,09,08,34,13.80
2022,06,09,08,35,13.80
2022,06,09,08,36,13.80
2022,06,09,08,37,13.80
2022,06,09,08,38,13.80
2022,06,09,08,39,13.80
2022,06,09,08,40,13.80
2022,06,09,08,41,13.90
2022,06,09,08,42,13.90
2022,06,09,08,43,13.90
2022,06,09,08,44,13.90
2022,06,09,08,45,13.90
2022,06,09,08,46,13.90
2022,06,09,08,47,13.90
2022,06,09,08,48,13.90
2022,06,09,08,49,14.00
2022,06,09,08,50,14.00
2022,06,09,08,51,14.00
2022,06,09,08,52,13.90
2022,06,09,08,53,13.90
2022,06,09,08,54,14.00
2022,06,09,08,55,14.00
2022,06,09,08,56,14.00
2022,06,09,08,57,14.00
2022,06,09,08,58,14.10
2022,06,09,08,59,14.10
2022,06,09,09,00,14.00
2022,06,09,09,01,14.00
2022,06,09,09,02,14.10
2022,06,09,09,03,14.10
2022,06,09,09,04,14.10
2022,06,09,09,05,14.10
2022,06,09,09,06,14.10
2022,06,09,09,07,14.10
2022,06,09,09,08,14.10
2022,06,09,09,09,14.10
2022,06,09,09,10,14.10
2022,06,09,09,11,14.10
2022,06,09,09,12,14.10
2022,06,09,09,13,14.10
2022,06,09,09,14,14.10
2022,06,09,09,15,14.10
2022,06,09,09,16,14.10
2022,06,09,09,17,14.10
2022,06,09,09,18,14.20
2022,06,09,09,19,14.20
2022,06,09,09,20,14.20
2022,06,09,09,21,14.20
2022,06,09,09,22,14.30
2022,06,09,09,23,14.30
2022,06,09,09,24,14.30
2022,06,09,09,25,14.30
2022,06,09,09,26,14.40
2022,06,09,09,27,14.40
2022,06,09,09,28,14.40
2022,06,09,09,29,14.40
2022,06,09,09,30,14.40
2022,06,09,09,31,14.40
2022,06,09,09,32,14.40
2022,06,09,09,33,14.40
2022,06,09,09,34,14.40
2022,06,09,09,35,14.40
2022,06,09,09,36,14.30
2022,06,09,09,37,14.30
2022,06,09,09,38,14.30
2022,06,09,09,39,14.20
2022,06,09,09,40,14.20
2022,06,09,09,41,14.10
2022,06,09,09,42,14.10
2022,06,09,09,43,14.00
2022,06,09,09,44,14.00
2022,06,09,09,45,13.90
2022,06,09,09,46,13.90
2022,06,09,09,47,13.90
2022,06,09,09,48,13.80
2022,06,09,09,49,13.80
2022,06,09,09,50,13.80
2022,06,09,09,51,13.80
2022,06,09,09,52,13.80
2022,06,09,09,53,13.80
2022,06,09,09,54,13.80
2022,06,09,09,55,13.80
2022,06,09,09,56,13.80
2022,06,09,09,57,13.80
2022,06,09,09,58,13.80
2022,06,09,09,59,13.80
2022,06,09,10,00,13.70
2022,06,09,10,01,13.70
2022,06,09,10,02,13.70
2022,06,09,10,03,13.70
2022,06,09,10,04,13.70
2022,06,09,10,05,13.70
2022,06,09,10,06,13.60
2022,06,09,10,07,13.70
2022,06,09,10,08,13.70
2022,06,09,10,09,13.70
2022,06,09,10,10,13.70
2022,06,09,10,11,13.70
2022,06,09,10,12,13.70
2022,06,09,10,13,13.70
2022,06,09,10,14,13.70
2022,06,09,10,15,13.70
2022,06,09,10,16,13.70
2022,06,09,10,17,13.70
2022,06,09,10,18,13.70
2022,06,09,10,19,13.70
2022,06,09,10,20,13.70
2022,06,09,10,21,13.70
2022,06,09,10,22,13.70
2022,06,09,10,23,13.70
2022,06,09,10,24,13.70
2022,06,09,10,25,13.70
2022,06,09,10,26,13.70
2022,06,09,10,27,13.70
2022,06,09,10,28,13.70
2022,06,09,10,29,13.70
2022,06,09,10,30,13.70
2022,06,09,10,31,13.70
2022,06,09,10,32,13.70
2022,06,09,10,33,13.70
2022,06,09,10,34,13.70
2022,06,09,10,35,13.70
2022,06,09,10,36,13.70
2022,06,09,10,37,13.70
2022,06,09,10,38,13.70
2022,06,09,10,39,13.70
2022,06,09,10,40,13.70
2022,06,09,10,41,13.70
2022,06,09,10,42,13.70
2022,06,09,10,43,13.70
2022,06,09,10,44,13.70
2022,06,09,10,45,13.70
2022,06,09,10,46,13.70
2022,06,09,10,47,13.70
2022,06,09,10,48,13.70
2022,06,09,10,49,13.70
2022,06,09,10,50,13.70
2022,06,09,10,51,13.70
2022,06,09,10,52,13.70
2022,06,09,10,53,13.60
2022,06,09,10,54,13.60
2022,06,09,10,55,13.60
2022,06,09,10,56,13.60
2022,06,09,10,57,13.60
2022,06,09,10,58,13.60
2022,06,09,10,59,13.60
2022,06,09,11,00,13.60
2022,06,09,11,01,13.60
2022,06,09,11,02,13.60
2022,06,09,11,03,13.60
2022,06,09,11,04,13.60
2022,06,09,11,05,13.60
2022,06,09,11,06,13.60
2022,06,09,11,07,13.60
2022,06,09,11,08,13.60
2022,06,09,11,09,13.60
2022,06,09,11,10,13.60
2022,06,09,11,11,13.60
2022,06,09,11,12,13.60
2022,06,09,11,13,13.60
2022,06,09,11,14,13.60
2022,06,09,11,15,13.60
2022,06,09,11,16,13.60
2022,06,09,11,17,13.60
2022,06,09,11,18,13.60
2022,06,09,11,19,13.60
2022,06,09,11,20,13.60
2022,06,09,11,21,13.60
2022,06,09,11,22,13.60
2022,06,09,11,23,13.60
2022,06,09,11,24,13.60
2022,06,09,11,25,13.70
2022,06,09,11,26,13.70
2022,06,09,11,27,13.70
2022,06,09,11,28,13.70
2022,06,09,11,29,13.70
2022,06,09,11,30,13.70
2022,06,09,11,31,13.70
2022,06,09,11,32,13.70
2022,06,09,11,33,13.70
2022,06,09,11,34,13.70
2022,06,09,11,35,13.70
2022,06,09,11,36,13.70
2022,06,09,11,37,13.70
2022,06,09,11,38,13.70
2022,06,09,11,39,13.60
2022,06,09,11,40,13.60
2022,06,09,11,41,13.60
2022,06,09,11,42,13.60
2022,06,09,11,43,13.60
2022,06,09,11,44,13.60
2022,06,09,11,45,13.60
2022,06,09,11,46,13.60
2022,06,09,11,47,13.50
2022,06,09,11,48,13.50
2022,06,09,11,49,13.50
2022,06,09,11,50,13.40
2022,06,09,11,51,13.40
2022,06,09,11,52,13.40
2022,06,09,11,53,13.40
2022,06,09,11,54,13.40
2022,06,09,11,55,13.30
2022,06,09,11,56,13.30
2022,06,09,11,57,13.30
2022,06,09,11,58,13.30
2022,06,09,11,59,13.30
2022,06,09,12,00,13.20
2022,06,09,12,01,13.20
2022,06,09,12,02,13.20
2022,06,09,12,03,13.20
2022,06,09,12,04,13.20
2022,06,09,12,05,13.10
2022,06,09,12,06,13.10
2022,06,09,12,07,13.10
2022,06,09,12,08,13.00
2022,06,09,12,09,13.00
2022,06,09,12,10,12.90
2022,06,09,12,11,12.90
2022,06,09,12,12,12.90
2022,06,09,12,13,12.90
2022,06,09,12,14,12.90
2022,06,09,12,15,12.90
2022,06,09,12,16,12.90
2022,06,09,12,17,12.80
2022,06,09,12,18,12.80
2022,06,09,12,19,12.90
2022,06,09,12,20,12.90
2022,06,09,12,21,12.90
2022,06,09,12,22,12.90
2022,06,09,12,23,12.90
2022,06,09,12,24,13.00
2022,06,09,12,25,13.00
2022,06,09,12,26,13.00
2022,06,09,12,27,13.00
2022,06,09,12,28,13.00
2022,06,09,12,29,13.00
2022,06,09,12,30,13.00
2022,06,09,12,31,13.00
2022,06,09,12,32,13.00
2022,06,09,12,33,13.00
2022,06,09,12,34,13.00
2022,06,09,12,35,12.90
2022,06,09,12,36,12.90
2022,06,09,12,37,12.90
2022,06,09,12,38,12.90
2022,06,09,12,39,12.80
2022,06,09,12,40,12.80
2022,06,09,12,41,12.80
2022,06,09,12,42,12.80
2022,06,09,12,43,12.80
2022,06,09,12,44,12.80
2022,06,09,12,45,12.80
2022,06,09,12,46,12.70
2022,06,09,12,47,12.70
2022,06,09,12,48,12.70
2022,06,09,12,49,12.70
2022,06,09,12,50,12.70
2022,06,09,12,51,12.70
2022,06,09,12,52,12.80
2022,06,09,12,53,12.80
2022,06,09,12,54,12.80
2022,06,09,12,55,12.80
2022,06,09,12,56,12.80
2022,06,09,12,57,12.80
2022,06,09,12,58,12.70
2022,06,09,12,59,12.70
2022,06,09,13,00,12.70
2022,06,09,13,01,12.70
2022,06,09,13,02,12.70
2022,06,09,13,03,12.70
2022,06,09,13,04,12.60
2022,06,09,13,05,12.60
2022,06,09,13,06,12.60
2022,06,09,13,07,12.60
2022,06,09,13,08,12.60
2022,06,09,13,09,12.60
2022,06,09,13,10,12.60
2022,06,09,13,11,12.60
2022,06,09,13,12,12.50
2022,06,09,13,13,12.50
2022,06,09,13,14,12.40
2022,06,09,13,15,12.40
2022,06,09,13,16,12.30
2022,06,09,13,17,12.30
2022,06,09,13,18,12.30
2022,06,09,13,19,12.20
2022,06,09,13,20,12.20
2022,06,09,13,21,12.20
2022,06,09,13,22,12.10
2022,06,09,13,23,12.10
2022,06,09,13,24,12.10
2022,06,09,13,25,12.10
2022,06,09,13,26,12.10
2022,06,09,13,27,12.00
2022,06,09,13,28,12.00
2022,06,09,13,29,12.00
2022,06,09,13,30,12.00
2022,06,09,13,31,11.90
2022,06,09,13,32,11.90
2022,06,09,13,33,11.90
2022,06,09,13,34,11.90
2022,06,09,13,35,12.00
2022,06,09,13,36,12.00
2022,06,09,13,37,12.00
2022,06,09,13,38,12.10
2022,06,09,13,39,12.10
2022,06,09,13,40,12.10
2022,06,09,13,41,12.10
2022,06,09,13,42,12.10
2022,06,09,13,43,12.10
2022,06,09,13,44,12.10
2022,06,09,13,45,12.10
2022,06,09,13,46,12.10
2022,06,09,13,47,12.20
2022,06,09,13,48,12.20
2022,06,09,13,49,12.30
2022,06,09,13,50,12.40
2022,06,09,13,51,12.40
2022,06,09,13,52,12.50
2022,06,09,13,53,12.50
2022,06,09,13,54,12.60
2022,06,09,13,55,12.70
2022,06,09,13,56,12.70
2022,06,09,13,57,12.80
2022,06,09,13,58,12.80
2022,06,09,13,59,12.80
2022,06,09,14,00,12.80
2022,06,09,14,01,12.80
2022,06,09,14,02,12.70
2022,06,09,14,03,12.70
2022,06,09,14,04,12.70
2022,06,09,14,05,12.70
2022,06,09,14,06,12.80
2022,06,09,14,07,12.80
2022,06,09,14,08,12.80
2022,06,09,14,09,12.80
2022,06,09,14,10,12.80
2022,06,09,14,11,12.80
2022,06,09,14,12,12.80
2022,06,09,14,13,12.80
2022,06,09,14,14,12.70
2022,06,09,14,15,12.70
2022,06,09,14,16,12.70
2022,06,09,14,17,12.70
2022,06,09,14,18,12.60
2022,06,09,14,19,12.70
2022,06,09,14,20,12.60
2022,06,09,14,21,12.60
2022,06,09,14,22,12.60
2022,06,09,14,23,12.60
2022,06,09,14,24,12.50
2022,06,09,14,25,12.50
2022,06,09,14,26,12.50
2022,06,09,14,27,12.50
2022,06,09,14,28,12.50
2022,06,09,14,29,12.40
2022,06,09,14,30,12.40
2022,06,09,14,31,12.40
2022,06,09,14,32,12.40
2022,06,09,14,33,12.40
2022,06,09,14,34,12.40
2022,06,09,14,35,12.40
2022,06,09,14,36,12.40
2022,06,09,14,37,12.40
2022,06,09,14,38,12.40
2022,06,09,14,39,12.30
2022,06,09,14,40,12.30
2022,06,09,14,41,12.30
2022,06,09,14,42,12.30
2022,06,09,14,43,12.30
2022,06,09,14,44,12.30
2022,06,09,14,45,12.20
2022,06,09,14,46,12.20
2022,06,09,14,47,12.20
2022,06,09,14,48,12.20
2022,06,09,14,49,12.20
2022,06,09,14,50,12.20
2022,06,09,14,51,12.20
2022,06,09,14,52,12.20
2022,06,09,14,53,12.20
2022,06,09,14,54,12.10
2022,06,09,14,55,12.10
2022,06,09,14,56,12.10
2022,06,09,14,57,12.10
2022,06,09,14,58,12.00
2022,06,09,14,59,12.00
2022,06,09,15,00,12.10
2022,06,09,15,01,12.10
2022,06,09,15,02,12.20
2022,06,09,15,03,12.20
2022,06,09,15,04,12.20
2022,06,09,15,05,12.20
2022,06,09,15,06,12.10
2022,06,09,15,07,12.10
2022,06,09,15,08,12.10
2022,06,09,15,09,12.10
2022,06,09,15,10,12.10
2022,06,09,15,11,12.10
2022,06,09,15,12,12.10
2022,06,09,15,13,12.10
2022,06,09,15,14,12.10
2022,06,09,15,15,12.10
2022,06,09,15,16,12.10
2022,06,09,15,17,12.10
2022,06,09,15,18,12.10
2022,06,09,15,19,12.10
2022,06,09,15,20,12.10
2022,06,09,15,21,12.10
2022,06,09,15,22,12.10
2022,06,09,15,23,12.10
2022,06,09,15,24,12.10
2022,06,09,15,25,12.20
2022,06,09,15,26,12.20
2022,06,09,15,27,12.20
2022,06,09,15,28,12.20
2022,06,09,15,29,12.20
2022,06,09,15,30,12.20
2022,06,09,15,31,12.20
2022,06,09,15,32,12.20
2022,06,09,15,33,12.10
2022,06,09,15,34,12.10
2022,06,09,15,35,12.10
2022,06,09,15,36,12.10
2022,06,09,15,37,12.10
2022,06,09,15,38,12.10
2022,06,09,15,39,12.10
2022,06,09,15,40,12.10
2022,06,09,15,41,12.10
2022,06,09,15,42,12.10
2022,06,09,15,43,12.00
2022,06,09,15,44,12.00
2022,06,09,15,45,12.00
2022,06,09,15,46,12.00
2022,06,09,15,47,11.90
2022,06,09,15,48,11.90
2022,06,09,15,49,12.00
2022,06,09,15,50,12.00
2022,06,09,15,51,12.00
2022,06,09,15,52,12.00
2022,06,09,15,53,12.00
2022,06,09,15,54,11.90
2022,06,09,15,55,11.90
2022,06,09,15,56,11.90
2022,06,09,15,57,11.90
2022,06,09,15,58,11.90
2022,06,09,15,59,11.90
2022,06,09,16,00,11.90
2022,06,09,16,01,11.90
2022,06,09,16,02,11.90
2022,06,09,16,03,11.90
2022,06,09,16,04,11.90
2022,06,09,16,05,11.90
2022,06,09,16,06,11.90
2022,06,09,16,07,12.00
2022,06,09,16,08,12.00
2022,06,09,16,09,12.00
2022,06,09,16,10,12.00
2022,06,09,16,11,12.00
2022,06,09,16,12,12.00
2022,06,09,16,13,12.00
2022,06,09,16,14,12.00
2022,06,09,16,15,12.00
2022,06,09,16,16,12.00
2022,06,09,16,17,12.00
2022,06,09,16,18,12.00
2022,06,09,16,19,12.00
2022,06,09,16,20,12.10
2022,06,09,16,21,12.10
2022,06,09,16,22,12.10
2022,06,09,16,23,12.10
2022,06,09,16,24,12.10
2022,06,09,16,25,12.10
2022,06,09,16,26,12.10
2022,06,09,16,27,12.10
2022,06,09,16,28,12.10
2022,06,09,16,29,12.10
2022,06,09,16,30,12.10
2022,06,09,16,31,12.10
2022,06,09,16,32,12.10
2022,06,09,16,33,12.10
2022,06,09,16,34,12.10
2022,06,09,16,35,12.10
2022,06,09,16,36,12.10
2022,06,09,16,37,12.10
2022,06,09,16,38,12.10
2022,06,09,16,39,12.10
2022,06,09,16,40,12.20
2022,06,09,16,41,12.20
2022,06,09,16,42,12.20
2022,06,09,16,43,12.20
2022,06,09,16,44,12.20
2022,06,09,16,45,12.20
2022,06,09,16,46,12.20
2022,06,09,16,47,12.30
2022,06,09,16,48,12.30
2022,06,09,16,49,12.30
2022,06,09,16,50,12.30
2022,06,09,16,51,12.30
2022,06,09,16,52,12.30
2022,06,09,16,53,12.30
2022,06,09,16,54,12.30
2022,06,09,16,55,12.30
2022,06,09,16,56,12.30
2022,06,09,16,57,12.30
2022,06,09,16,58,12.40
2022,06,09,16,59,12.40
2022,06,09,17,00,12.40
2022,06,09,17,01,12.40
2022,06,09,17,02,12.40
2022,06,09,17,03,12.50
2022,06,09,17,04,12.50
2022,06,09,17,05,12.50
2022,06,09,17,06,12.50
2022,06,09,17,07,12.40
2022,06,09,17,08,12.40
2022,06,09,17,09,12.40
2022,06,09,17,10,12.40
2022,06,09,17,11,12.40
2022,06,09,17,12,12.40
2022,06,09,17,13,12.40
2022,06,09,17,14,12.30
2022,06,09,17,15,12.30
2022,06,09,17,16,12.30
2022,06,09,17,17,12.30
2022,06,09,17,18,12.30
2022,06,09,17,19,12.30